MDS212 KIAD-KORF

Flight info

Callsign MDS212
Flight time N/A
Altitude 26000
Route JDUBB4 JDUBB BNTLY WAIKS
Aircraft P180/L-SBDFGM3RWXY/LB1

Departure

Time 2026-05-06 21:36
Airport Washington Dulles International Airport (KIAD)

Arrival

Time N/A
Airport Norfolk International Airport (KORF)
Time Latitude Longitude Altitude Speed Heading
2026-05-06 20:37 38.94595 -77.46475 292 ft 0 kts 38°
2026-05-06 21:06 38.94609 -77.46459 292 ft 9 kts 42°
2026-05-06 21:06 38.94639 -77.46421 295 ft 8 kts 48°
2026-05-06 21:07 38.94664 -77.46381 295 ft 4 kts 62°
2026-05-06 21:07 38.94666 -77.46321 293 ft 10 kts 92°
2026-05-06 21:07 38.94665 -77.46221 292 ft 9 kts 91°
2026-05-06 21:07 38.94665 -77.46149 292 ft 10 kts 89°
2026-05-06 21:08 38.94665 -77.46099 291 ft 2 kts 89°
2026-05-06 21:08 38.94665 -77.46098 291 ft 0 kts 89°
2026-05-06 21:10 38.94665 -77.46082 292 ft 8 kts 89°
2026-05-06 21:10 38.94663 -77.45977 291 ft 15 kts 90°
2026-05-06 21:10 38.94662 -77.45822 290 ft 18 kts 91°
2026-05-06 21:10 38.94665 -77.45743 290 ft 5 kts 60°
2026-05-06 21:11 38.94730 -77.45719 288 ft 10 kts
2026-05-06 21:11 38.94814 -77.45717 287 ft 14 kts
2026-05-06 21:11 38.94921 -77.45717 288 ft 17 kts
2026-05-06 21:11 38.95051 -77.45713 287 ft 21 kts
2026-05-06 21:12 38.95147 -77.45713 286 ft 13 kts
2026-05-06 21:12 38.95242 -77.45711 293 ft 14 kts
2026-05-06 21:12 38.95343 -77.45709 294 ft 15 kts
2026-05-06 21:12 38.95453 -77.45707 293 ft 18 kts 360°
2026-05-06 21:13 38.95573 -77.45707 291 ft 13 kts
2026-05-06 21:13 38.95658 -77.45706 292 ft 12 kts
2026-05-06 21:13 38.95734 -77.45705 291 ft 5 kts
2026-05-06 21:13 38.95758 -77.45703 293 ft 11 kts
2026-05-06 21:14 38.95874 -77.45704 287 ft 20 kts
2026-05-06 21:14 38.95978 -77.45701 284 ft 15 kts
2026-05-06 21:14 38.96099 -77.45699 283 ft 20 kts
2026-05-06 21:14 38.96237 -77.45697 279 ft 15 kts
2026-05-06 21:15 38.96256 -77.45697 279 ft 2 kts 359°
2026-05-06 21:15 38.96293 -77.45699 278 ft 9 kts 356°
2026-05-06 21:15 38.96331 -77.45695 278 ft 0 kts
2026-05-06 21:15 38.96336 -77.45696 278 ft 0 kts 359°
2026-05-06 21:16 38.96353 -77.45696 278 ft 5 kts 360°
2026-05-06 21:16 38.96404 -77.45690 279 ft 9 kts
2026-05-06 21:16 38.96477 -77.45691 280 ft 11 kts 357°
2026-05-06 21:16 38.96500 -77.45693 280 ft 3 kts 358°
2026-05-06 21:17 38.96534 -77.45694 280 ft 7 kts 359°
2026-05-06 21:17 38.96552 -77.45694 280 ft 0 kts 360°
2026-05-06 21:29 38.96577 -77.45693 280 ft 11 kts
2026-05-06 21:29 38.96671 -77.45693 281 ft 15 kts
2026-05-06 21:30 38.96775 -77.45690 283 ft 15 kts
2026-05-06 21:30 38.96863 -77.45690 285 ft 7 kts
2026-05-06 21:30 38.96927 -77.45688 285 ft 11 kts
2026-05-06 21:30 38.97001 -77.45701 283 ft 10 kts 319°
2026-05-06 21:31 38.97014 -77.45771 283 ft 3 kts 270°
2026-05-06 21:31 38.97014 -77.45796 283 ft 0 kts 271°
2026-05-06 21:31 38.97014 -77.45797 283 ft 0 kts 271°
2026-05-06 21:32 38.97014 -77.45799 283 ft 0 kts 271°
2026-05-06 21:34 38.97014 -77.45811 283 ft 2 kts 270°
2026-05-06 21:34 38.97013 -77.45860 284 ft 4 kts 268°
2026-05-06 21:34 38.96997 -77.45903 284 ft 3 kts 226°
2026-05-06 21:35 38.96965 -77.45925 284 ft 8 kts 194°
2026-05-06 21:35 38.96868 -77.45933 283 ft 33 kts 181°
2026-05-06 21:35 38.96395 -77.45940 279 ft 94 kts 180°
2026-05-06 21:35 38.95713 -77.45936 626 ft 102 kts 182°
2026-05-06 21:36 38.94965 -77.45917 1006 ft 111 kts 185°
2026-05-06 21:36 38.94181 -77.45931 1327 ft 118 kts 187°
2026-05-06 21:36 38.93341 -77.45874 1737 ft 123 kts 185°
2026-05-06 21:36 38.92484 -77.45807 2113 ft 123 kts 185°
2026-05-06 21:37 38.91626 -77.45783 2564 ft 124 kts 187°
2026-05-06 21:37 38.90758 -77.45769 3068 ft 125 kts 186°
2026-05-06 21:37 38.89885 -77.45719 3536 ft 126 kts 186°
2026-05-06 21:37 38.89007 -77.45637 4064 ft 125 kts 188°
2026-05-06 21:38 38.88174 -77.45808 4578 ft 119 kts 207°
2026-05-06 21:38 38.87450 -77.46280 5043 ft 114 kts 223°
2026-05-06 21:38 38.86908 -77.46993 5470 ft 115 kts 240°
2026-05-06 21:38 38.86403 -77.47856 5925 ft 134 kts 218°
2026-05-06 21:39 38.85385 -77.47832 6387 ft 161 kts 176°
2026-05-06 21:39 38.84335 -77.47898 6894 ft 148 kts 207°
2026-05-06 21:39 38.83351 -77.48253 7446 ft 151 kts 203°
2026-05-06 21:39 38.82305 -77.48554 8049 ft 157 kts 204°
2026-05-06 21:40 38.81235 -77.48905 8644 ft 161 kts 203°
2026-05-06 21:40 38.80140 -77.49228 9268 ft 162 kts 204°
2026-05-06 21:40 38.79047 -77.49574 9891 ft 162 kts 204°
2026-05-06 21:40 38.77959 -77.49917 10452 ft 161 kts 204°
2026-05-06 21:41 38.76878 -77.50263 11053 ft 159 kts 206°
2026-05-06 21:41 38.75813 -77.50613 11687 ft 157 kts 207°
2026-05-06 21:41 38.74745 -77.50937 12295 ft 158 kts 206°
2026-05-06 21:41 38.73687 -77.51269 12940 ft 155 kts 208°
2026-05-06 21:42 38.72666 -77.51643 13629 ft 155 kts 209°
2026-05-06 21:42 38.71595 -77.51910 14189 ft 156 kts 207°
2026-05-06 21:42 38.70565 -77.52242 14667 ft 151 kts 212°
2026-05-06 21:42 38.69557 -77.52593 15137 ft 151 kts 211°
2026-05-06 21:43 38.68506 -77.52906 15581 ft 158 kts 208°
2026-05-06 21:43 38.67402 -77.53064 16109 ft 162 kts 201°
2026-05-06 21:43 38.66243 -77.53094 16473 ft 174 kts 198°
2026-05-06 21:43 38.65001 -77.53036 16869 ft 180 kts 194°
2026-05-06 21:44 38.63776 -77.52868 17443 ft 176 kts 192°
2026-05-06 21:44 38.62554 -77.52611 17738 ft 187 kts 189°
2026-05-06 21:44 38.61246 -77.52270 18046 ft 194 kts 186°
2026-05-06 21:44 38.59939 -77.51854 18480 ft 193 kts 184°